Regional Weather Roundup
Issued by NWS

Home | Current Version | Previous Version | Graphics & Text | Print | Product List | Glossary On
Versions: 1 2 3 4 5 6 7 8 9 10 11 12 13 14 15 16 17 18 19 20 21 22 23 24 25 26 27 28 29 30 31 32 33 34 35 36 37 38 39 40 41 42 43 44 45 46 47 48 49 50
222
ASUS43 KBIS 010702
RWRND

NORTH DAKOTA REGIONAL WEATHER ROUNDUP
NATIONAL WEATHER SERVICE BISMARCK ND
100 AM CST WED MAR 01 2017

NOTE: "FAIR" INDICATES FEW OR NO CLOUDS BELOW 12,000 FEET WITH NO
SIGNIFICANT WEATHER AND/OR OBSTRUCTIONS TO VISIBILITY.


NDZ001>003-009>011-017-010800-
NORTHWEST NORTH DAKOTA

CITY           SKY/WX    TMP DP  RH WIND       PRES   REMARKS
WILLISTON      FLURRIES  22  18  85 N10       29.91R WCI  11
MINOT          LGT SNOW  14  10  84 NE3       29.90S FOG
MINOT AFB      LGT SNOW  13   9  86 NE3       29.90S FOG
$$

NDZ018>021-031>035-040>046-010800-
SOUTHWEST NORTH DAKOTA

CITY           SKY/WX    TMP DP  RH WIND       PRES   REMARKS
BISMARCK       MOCLDY    13  10  88 E3        29.91S
DICKINSON      MOCLDY    22  19  89 W14       29.81R WCI   9
GARRISON         N/A     14  11  87 SE7       29.87F WCI   4
HETTINGER ARPT CLOUDY    20  16  84 W7        29.84S WCI  11
$$

NDZ004>008-012>016-024-026-027-054-010800-
NORTHEAST NORTH DAKOTA

CITY           SKY/WX    TMP DP  RH WIND       PRES   REMARKS
GRAND FORKS    CLOUDY    12   3  67 N12       29.92F WCI  -2
GRND FRKS AFB  CLOUDY    11   4  74 N9        29.93F WCI  -2
DEVILS LAKE    FAIR       1  -3  83 W3        29.93R
$$

NDZ022-023-025-028>030-036>039-047>053-010800-
SOUTHEAST NORTH DAKOTA

CITY           SKY/WX    TMP DP  RH WIND       PRES   REMARKS
FARGO          PTCLDY    18  15  88 N9        29.88F WCI   7
JAMESTOWN      FAIR      16  12  84 N6        29.88F WCI   7
$$





USA.gov is the U.S. government's official web portal to all federal, state and local government web resources and services.